COSMOS 736

导读 | 豆包AI

COSMOS 736是苏联CIS“宇宙”号卫星系列中的成员,1975年5月28日成功发射升空。“宇宙”系列是全球卫星数量最多的卫星家族,混编各类应用卫星、科学卫星与技术试验卫星,多数承担军用任务,涵盖侦察、通信等功能。COSMOS 736延续系列设计定位,或开展技术验证或空间探测任务,服役后为苏联航天技术积累了宝贵在轨数据,是该系列发展进程中的组成部分。

Basic Information
目录编号:
7825
目录名称:
COSMOS 736
国际标识:
1975-045E
轨道中心:
EARTH
卫星名称:
COSMOS 736
卫星全名:
--
卫星状态:
在轨 (已飞行18600 天)
发射日期:
1975-05-28 UTC
国别 :
俄罗斯(独联体) (CIS)
星等 :
--
Orbit Information
数据来源 国际轨道数据 AOE轨道数据
星历时间 2026-04-30T21:49:53+0800
8小时前
查看轨道信息
2026-04-30T09:00:00+0800
21小时前
查看轨道信息
半长轴 7855.675km 7855.674km
偏心率 0.0011016 0.0011048
轨道倾角 74.016° 74.015°
近地点辐角 206.120° 206.922°
升交点赤经 153.151° 153.858°
平近点角 270.541° 30.630°
近地点 1468.884km 1468.858km
远地点 1486.192km 1486.216km
周期 115.487分钟 115.487分钟
每日圈数 12.468883 12.468884
Detailed Information
使用方式:
暂无
2D Orbit Map
3D Orbit Map
Orbit Altitude Analysis Chart
Orbit Inclination Analysis Chart
Orbit Comprehensive Analysis Chart
View Comprehensive Chart